timestamp,surface_pressure_avg,surface_temp_avg,battery_voltage,lat,long
2023-10-24 00:09:01+00:00,245.7798,11.2,11.3,47.84626,-54.09684
2023-10-24 00:19:01+00:00,239.6564,10.9,11.3,47.84626,-54.09684
2023-10-24 00:29:01+00:00,231.3831,11.1,11.3,47.84626,-54.09684
2023-10-24 00:39:01+00:00,232.3314,11.2,11.3,47.84626,-54.09684
2023-10-24 00:49:01+00:00,236.3081,10.95,11.3,47.84626,-54.09684
2023-10-24 00:59:01+00:00,230.8281,10.85,11.3,47.84626,-54.09684
2023-10-24 01:09:01+00:00,225.5281,11.05,11.3,47.84626,-54.09684
2023-10-24 01:19:01+00:00,228.4064,11.13,11.3,47.84626,-54.09684
2023-10-24 01:29:01+00:00,224.3264,11.2,11.3,47.84626,-54.09684
2023-10-24 01:39:01+00:00,216.1531,11.13,11.3,47.84626,-54.09684
2023-10-24 01:49:01+00:00,218.7181,11.2,11.3,47.84626,-54.09684
2023-10-24 01:59:01+00:00,222.5364,11.2,11.3,47.84626,-54.09684
2023-10-24 02:09:01+00:00,216.9698,11.2,11.3,47.84626,-54.09684
2023-10-24 02:19:00+00:00,217.1147,11.2,11.3,47.84626,-54.09684
2023-10-24 02:29:00+00:00,224.3181,11.2,11.3,47.84626,-54.09684
2023-10-24 02:39:00+00:00,220.6514,11.2,11.3,47.84626,-54.09684
2023-10-24 02:49:00+00:00,216.8114,11.2,11.3,47.84626,-54.09684
2023-10-24 02:59:00+00:00,224.7314,11.2,11.3,47.84626,-54.09684
2023-10-24 03:09:00+00:00,228.8898,11.2,11.3,47.84626,-54.09684
2023-10-24 03:19:00+00:00,231.6681,11.2,11.3,47.84626,-54.09684
2023-10-24 03:29:00+00:00,240.4948,11.2,11.3,47.84626,-54.09684
2023-10-24 03:39:00+00:00,245.8114,11.2,11.3,47.84626,-54.09684
2023-10-24 03:49:00+00:00,245.1781,11.2,11.3,47.84626,-54.09684
2023-10-24 03:59:00+00:00,248.243,11.2,11.3,47.84626,-54.09684
2023-10-24 04:09:00+00:00,259.808,11.2,11.3,47.84626,-54.09684
2023-10-24 04:19:00+00:00,265.5964,11.2,11.3,47.84626,-54.09684
2023-10-24 04:29:00+00:00,265.5131,11.2,11.3,47.84626,-54.09684
2023-10-24 04:39:00+00:00,269.4798,11.2,11.3,47.84626,-54.09684
2023-10-24 04:49:00+00:00,277.8864,11.19,11.3,47.84626,-54.09684
2023-10-24 04:59:00+00:00,278.3364,11.19,11.3,47.84626,-54.09684
2023-10-24 05:09:00+00:00,280.5831,11.2,11.3,47.84626,-54.09684
2023-10-24 05:19:00+00:00,291.4747,11.19,11.3,47.84626,-54.09684
2023-10-24 05:29:00+00:00,296.7697,11.19,11.3,47.84626,-54.09684
2023-10-24 05:39:00+00:00,294.663,11.2,11.3,47.84626,-54.09684
2023-10-24 05:49:00+00:00,302.5513,11.2,11.3,47.84626,-54.09684
2023-10-24 05:59:00+00:00,312.7047,11.2,11.3,47.84626,-54.09684
2023-10-24 06:09:00+00:00,310.873,11.2,11.3,47.84626,-54.09684
2023-10-24 06:19:00+00:00,309.4047,11.19,11.3,47.84626,-54.09684
2023-10-24 06:29:00+00:00,319.8847,11.16,11.3,47.84626,-54.09684
2023-10-24 06:39:00+00:00,323.5864,11.19,11.3,47.84626,-54.09684
2023-10-24 06:49:00+00:00,319.3496,11.18,11.3,47.84626,-54.09684
2023-10-24 06:59:00+00:00,321.4863,11.19,11.3,47.84626,-54.09684
2023-10-24 07:09:00+00:00,327.7797,11.19,11.3,47.84626,-54.09684
2023-10-24 07:19:00+00:00,327.7663,11.2,11.3,47.84626,-54.09684
2023-10-24 07:29:00+00:00,326.6746,11.2,11.3,47.84626,-54.09684
2023-10-24 07:39:00+00:00,331.5063,11.1,11.3,47.84626,-54.09684
2023-10-24 07:49:00+00:00,329.968,11.1,11.3,47.84626,-54.09684
2023-10-24 07:59:00+00:00,325.1514,11.1,11.3,47.84626,-54.09684
2023-10-24 08:09:00+00:00,323.2047,11.18,11.3,47.84626,-54.09684
2023-10-24 08:19:00+00:00,325.4346,11.07,11.3,47.84626,-54.09684
2023-10-24 08:19:01+00:00,325.4346,11.07,11.3,47.84626,-54.09684
2023-10-24 08:29:00+00:00,320.4247,10.8,11.3,47.84626,-54.09684
2023-10-24 08:29:01+00:00,320.4247,10.8,11.3,47.84626,-54.09684
2023-10-24 08:39:00+00:00,316.0096,10.8,11.3,47.84626,-54.09684
2023-10-24 08:39:01+00:00,316.0096,10.8,11.3,47.84626,-54.09684
2023-10-24 08:49:00+00:00,314.5714,10.8,11.3,47.84626,-54.09684
2023-10-24 08:49:01+00:00,314.5714,10.8,11.3,47.84626,-54.09684
2023-10-24 08:59:00+00:00,311.013,10.85,11.3,47.84626,-54.09684
2023-10-24 08:59:01+00:00,311.013,10.85,11.3,47.84626,-54.09684
2023-10-24 09:09:00+00:00,305.513,10.9,11.3,47.84626,-54.09684
2023-10-24 09:09:01+00:00,305.513,10.9,11.3,47.84626,-54.09684
2023-10-24 09:19:00+00:00,301.3596,10.8,11.3,47.84626,-54.09684
2023-10-24 09:29:00+00:00,295.603,10.79,11.3,47.84626,-54.09684
2023-10-24 09:39:00+00:00,291.7714,10.7,11.3,47.84626,-54.09684
2023-10-24 09:49:00+00:00,286.3113,10.7,11.3,47.84626,-54.09684
2023-10-24 09:59:00+00:00,281.1881,10.6,11.3,47.84626,-54.09684
2023-10-24 10:09:00+00:00,278.1297,10.6,11.3,47.84626,-54.09684
2023-10-24 10:19:00+00:00,278.2897,10.53,11.3,47.84626,-54.09684
2023-10-24 10:29:00+00:00,272.4164,10.46,11.3,47.84626,-54.09684
2023-10-24 10:39:00+00:00,267.7831,10.1,11.3,47.84626,-54.09684
2023-10-24 10:49:00+00:00,268.2864,10.1,11.3,47.84626,-54.09684
2023-10-24 10:59:00+00:00,265.4581,10.02,11.3,47.84626,-54.09684
2023-10-24 11:09:00+00:00,258.1514,10.1,11.3,47.84626,-54.09684
2023-10-24 11:19:00+00:00,255.6131,10.19,11.61,47.84626,-54.09684
2023-10-24 11:29:00+00:00,255.9448,10.3,11.61,47.84626,-54.09684
2023-10-24 11:39:00+00:00,250.4198,10.11,11.61,47.84626,-54.09684
2023-10-24 11:49:00+00:00,245.5931,10.2,11.61,47.84626,-54.09684
2023-10-24 11:59:00+00:00,243.058,10.1,11.61,47.84626,-54.09684
2023-10-24 12:09:00+00:00,240.6598,10.0,11.61,47.84626,-54.09684
2023-10-24 12:19:00+00:00,237.1514,10.0,11.61,47.84626,-54.09684
2023-10-24 12:29:00+00:00,237.8181,10.09,11.61,47.84626,-54.09684
2023-10-24 12:39:00+00:00,236.0531,10.1,11.61,47.84626,-54.09684
2023-10-24 12:49:00+00:00,232.7464,10.09,11.61,47.84626,-54.09684
2023-10-24 12:59:00+00:00,230.2731,10.09,11.61,47.84626,-54.09684
2023-10-24 13:09:00+00:00,228.4114,10.1,11.61,47.84626,-54.09684
2023-10-24 13:19:00+00:00,224.0815,10.1,11.93,47.84626,-54.09684
2023-10-24 13:29:00+00:00,220.6681,10.1,11.93,47.84626,-54.09684
2023-10-24 13:39:00+00:00,222.0564,10.06,11.93,47.84626,-54.09684
2023-10-24 13:49:00+00:00,220.6131,10.04,11.93,47.84626,-54.09684
2023-10-24 13:59:00+00:00,220.2714,10.08,11.93,47.84626,-54.09684
2023-10-24 14:09:00+00:00,222.6097,10.09,11.93,47.84626,-54.09684
2023-10-24 14:19:00+00:00,224.5548,10.2,11.53,47.84626,-54.09684
2023-10-24 14:19:01+00:00,224.5548,10.2,11.53,47.84626,-54.09684
2023-10-24 14:29:00+00:00,223.6248,10.24,11.53,47.84626,-54.09684
2023-10-24 14:29:01+00:00,223.6248,10.24,11.53,47.84626,-54.09684
2023-10-24 14:39:00+00:00,222.8548,10.25,11.53,47.84626,-54.09684
2023-10-24 14:39:01+00:00,222.8548,10.25,11.53,47.84626,-54.09684
2023-10-24 14:49:00+00:00,224.0547,10.29,11.53,47.84626,-54.09684
2023-10-24 14:49:01+00:00,224.0547,10.29,11.53,47.84626,-54.09684
2023-10-24 14:59:00+00:00,227.9664,10.54,11.53,47.84626,-54.09684
2023-10-24 14:59:01+00:00,227.9664,10.54,11.53,47.84626,-54.09684
2023-10-24 15:09:00+00:00,227.9215,10.67,11.53,47.84626,-54.09684
2023-10-24 15:09:01+00:00,227.9215,10.67,11.53,47.84626,-54.09684
2023-10-24 15:19:00+00:00,228.0631,10.7,11.7,47.84626,-54.09684
2023-10-24 15:29:00+00:00,231.3797,10.68,11.7,47.84626,-54.09684
2023-10-24 15:39:00+00:00,236.0431,10.65,11.7,47.84626,-54.09684
2023-10-24 15:49:00+00:00,239.5681,10.67,11.7,47.84626,-54.09684
2023-10-24 15:59:00+00:00,243.9514,10.69,11.7,47.84626,-54.09684
2023-10-24 16:09:00+00:00,248.8348,10.69,11.7,47.84626,-54.09684
2023-10-24 16:19:00+00:00,254.2448,10.7,11.77,47.84626,-54.09684
2023-10-24 16:29:00+00:00,258.1497,10.7,11.77,47.84626,-54.09684
2023-10-24 16:39:00+00:00,265.0298,10.7,11.77,47.84626,-54.09684
2023-10-24 16:49:00+00:00,270.1097,10.78,11.77,47.84626,-54.09684
2023-10-24 16:59:00+00:00,273.8698,10.79,11.77,47.84626,-54.09684
2023-10-24 17:09:00+00:00,279.4781,10.78,11.77,47.84626,-54.09684
2023-10-24 17:19:00+00:00,290.593,10.8,11.77,47.84626,-54.09684
2023-10-24 17:29:00+00:00,296.4214,10.8,11.77,47.84626,-54.09684
2023-10-24 17:39:00+00:00,298.2363,10.8,11.77,47.84626,-54.09684
2023-10-24 17:49:00+00:00,303.3947,10.8,11.77,47.84626,-54.09684
2023-10-24 17:59:00+00:00,313.1763,10.87,11.77,47.84626,-54.09684
2023-10-24 18:09:00+00:00,317.3229,10.9,11.77,47.84626,-54.09684
2023-10-24 18:19:00+00:00,319.1396,11.0,11.7,47.84626,-54.09684
2023-10-24 18:29:00+00:00,324.1813,11.0,11.7,47.84626,-54.09684
2023-10-24 18:39:00+00:00,329.6595,11.1,11.7,47.84626,-54.09684
2023-10-24 18:49:00+00:00,329.6613,11.1,11.7,47.84626,-54.09684
2023-10-24 18:59:00+00:00,331.3597,11.11,11.7,47.84626,-54.09684
2023-10-24 19:09:00+00:00,335.8280000000001,11.12,11.7,47.84626,-54.09684
2023-10-24 19:19:00+00:00,337.93300000000005,11.13,11.53,47.84626,-54.09684
2023-10-24 19:29:00+00:00,337.92800000000005,11.12,11.53,47.84626,-54.09684
2023-10-24 19:39:00+00:00,339.1829,11.14,11.53,47.84626,-54.09684
2023-10-24 19:49:00+00:00,339.4915,11.19,11.53,47.84626,-54.09684
2023-10-24 19:59:00+00:00,340.9014,11.15,11.53,47.84626,-54.09684
2023-10-24 20:09:00+00:00,343.1946,11.14,11.53,47.84626,-54.09684
2023-10-24 20:19:00+00:00,343.9263,11.1,11.46,47.84626,-54.09684
2023-10-24 20:29:00+00:00,341.9012,11.1,11.46,47.84626,-54.09684
2023-10-24 20:39:00+00:00,342.7114,11.14,11.46,47.84626,-54.09684
2023-10-24 20:49:00+00:00,345.1296,11.15,11.46,47.84626,-54.09684
2023-10-24 20:59:00+00:00,340.6163,11.14,11.46,47.84626,-54.09684
2023-10-24 21:09:00+00:00,336.9279,11.17,11.46,47.84626,-54.09684
2023-10-24 21:19:00+00:00,336.8913,11.18,11.46,47.84626,-54.09684
2023-10-24 21:29:00+00:00,333.048,11.19,11.46,47.84626,-54.09684
2023-10-24 21:39:00+00:00,323.7747,11.19,11.46,47.84626,-54.09684
2023-10-24 21:49:00+00:00,318.9564,11.19,11.46,47.84626,-54.09684
2023-10-24 21:59:00+00:00,315.8997,11.2,11.46,47.84626,-54.09684
2023-10-24 22:09:00+00:00,309.138,11.2,11.46,47.84626,-54.09684
2023-10-24 22:19:01+00:00,299.7197,11.2,11.46,47.84626,-54.09684
2023-10-24 22:29:01+00:00,289.1514,11.2,11.46,47.84626,-54.09684
2023-10-24 22:39:01+00:00,282.7147,11.2,11.46,47.84626,-54.09684
2023-10-24 22:49:01+00:00,276.6931,11.19,11.46,47.84626,-54.09684
2023-10-24 22:59:01+00:00,268.7947,11.17,11.46,47.84626,-54.09684
2023-10-24 23:09:01+00:00,262.0081,11.17,11.46,47.84626,-54.09684
2023-10-24 23:19:00+00:00,257.7165,11.18,11.46,47.84626,-54.09684
2023-10-24 23:29:00+00:00,254.8631,11.1,11.46,47.84626,-54.09684
2023-10-24 23:39:00+00:00,249.2581,11.11,11.46,47.84626,-54.09684
2023-10-24 23:49:00+00:00,244.8347,11.16,11.46,47.84626,-54.09684
2023-10-24 23:59:00+00:00,240.9247,11.18,11.46,47.84626,-54.09684
